TimeEDT,TemperatureF,Dew PointF,Humidity,Sea Level PressureIn,VisibilityMPH,Wind Direction,Wind SpeedMPH,Gust SpeedMPH,PrecipitationIn,Events,Conditions,WindDirDegrees,DateUTC
12:56 AM,53.1,43.0,69,30.40,10.0,East,11.5,-,N/A,,Overcast,90,2013-05-03 04:56:00
1:56 AM,52.0,42.1,69,30.40,10.0,East,8.1,-,N/A,,Overcast,80,2013-05-03 05:56:00
2:56 AM,51.1,41.0,68,30.40,10.0,ENE,8.1,-,N/A,,Mostly Cloudy,60,2013-05-03 06:56:00
3:56 AM,51.1,37.0,59,30.40,10.0,NE,10.4,-,N/A,,Overcast,50,2013-05-03 07:56:00
4:56 AM,51.1,35.1,54,30.41,10.0,NE,9.2,-,N/A,,Overcast,50,2013-05-03 08:56:00
5:56 AM,48.9,35.1,59,30.44,10.0,ENE,9.2,18.4,N/A,,Scattered Clouds,70,2013-05-03 09:56:00
6:56 AM,48.9,36.0,61,30.45,10.0,ENE,10.4,17.3,N/A,,Scattered Clouds,70,2013-05-03 10:56:00
7:56 AM,51.1,36.0,56,30.45,10.0,NE,12.7,21.9,N/A,,Scattered Clouds,50,2013-05-03 11:56:00
8:56 AM,54.0,37.9,55,30.45,10.0,ENE,10.4,18.4,N/A,,Scattered Clouds,60,2013-05-03 12:56:00
9:56 AM,54.0,36.0,51,30.45,10.0,NE,12.7,19.6,N/A,,Partly Cloudy,40,2013-05-03 13:56:00
10:56 AM,57.0,35.1,44,30.44,10.0,East,10.4,-,N/A,,Partly Cloudy,80,2013-05-03 14:56:00
11:56 AM,60.1,36.0,41,30.42,10.0,NE,13.8,20.7,N/A,,Partly Cloudy,50,2013-05-03 15:56:00
12:56 PM,62.1,36.0,38,30.40,10.0,East,12.7,21.9,N/A,,Partly Cloudy,90,2013-05-03 16:56:00
2:56 PM,59.0,42.1,53,30.39,10.0,ESE,16.1,-,N/A,,Clear,120,2013-05-03 18:56:00
3:56 PM,57.9,43.0,58,30.37,10.0,SE,13.8,-,N/A,,Partly Cloudy,130,2013-05-03 19:56:00
4:56 PM,57.9,42.1,56,30.37,10.0,SE,12.7,-,N/A,,Partly Cloudy,140,2013-05-03 20:56:00
5:56 PM,55.9,42.1,60,30.36,10.0,SE,10.4,-,N/A,,Scattered Clouds,140,2013-05-03 21:56:00
6:56 PM,53.1,42.1,66,30.37,10.0,SE,9.2,-,N/A,,Scattered Clouds,130,2013-05-03 22:56:00
7:56 PM,51.1,42.1,71,30.37,10.0,SE,8.1,-,N/A,,Scattered Clouds,130,2013-05-03 23:56:00
8:56 PM,48.9,42.1,77,30.38,10.0,ESE,9.2,-,N/A,,Scattered Clouds,110,2013-05-04 00:56:00
9:56 PM,48.9,42.1,77,30.39,10.0,ENE,3.5,-,N/A,,Clear,70,2013-05-04 01:56:00
10:56 PM,46.9,41.0,80,30.38,10.0,NNE,3.5,-,N/A,,Clear,30,2013-05-04 02:56:00
11:56 PM,46.0,41.0,83,30.36,10.0,Calm,Calm,-,N/A,,Clear,0,2013-05-04 03:56:00